Location: *
(2.5500°S, 65.9667°W)
Time: 21:42:12
(UTC+00:00)

Courier 1B - All Passes

Search period start: 12 April 2024 00:00
Search period end: 22 April 2024 00:00
Orbit: 962 x 1209 km, 28.3° (Epoch: 11 April)

Date Brightness Start Highest point End Pass type
(mag) Time Alt. Az. Time Alt. Az. Time Alt. Az.
12 Apr - 01:50:57 10° SSW 01:55:05 15° SSE 01:59:08 10° SE visible
12 Apr - 03:43:21 10° SW 03:50:26 39° SSE 03:57:09 10° E night (unlit)
12 Apr - 05:37:25 10° WSW 05:44:50 67° NNW 05:51:47 10° NE night (unlit)
12 Apr - 07:34:27 10° WNW 07:39:08 19° NNW 07:43:40 10° NNE visible
12 Apr - 15:18:42 10° NNW 15:23:17 19° NNE 15:28:01 10° ENE daylight
12 Apr - 17:10:43 10° NW 17:17:29 71° NNE 17:24:44 10° ESE daylight
12 Apr - 19:05:27 10° W 19:11:52 36° SSW 19:18:40 10° SE daylight
12 Apr - 21:03:42 10° SW 21:07:16 14° SSW 21:10:54 10° SSE daylight
13 Apr - 00:57:46 10° S 01:00:35 12° SSE 01:03:23 10° SE visible
13 Apr - 02:49:38 10° SSW 02:56:16 30° SSE 03:02:39 10° E night (unlit)
13 Apr - 04:43:13 10° WSW 04:50:54 90° SSE 04:58:05 10° ENE night (unlit)
13 Apr - 06:39:13 10° W 06:45:09 26° NNW 06:50:47 10° NNE visible
13 Apr - 14:26:16 10° N 14:29:16 13° NNE 14:32:18 10° NE daylight
13 Apr - 16:17:12 10° NW 16:23:38 50° NNE 16:30:27 10° ESE daylight
13 Apr - 18:11:12 10° W 18:17:49 48° SSW 18:24:54 10° SE daylight
13 Apr - 20:08:21 10° WSW 20:12:52 17° SSW 20:17:32 10° SSE daylight
14 Apr - 01:56:02 10° SSW 02:02:00 23° SSE 02:07:51 10° ESE visible
14 Apr - 03:49:10 10° SW 03:56:53 67° SSE 04:04:11 10° ENE night (unlit)
14 Apr - 05:44:22 10° W 05:51:11 37° NNW 05:57:37 10° NE night (unlit)
14 Apr - 15:23:52 10° NW 15:29:47 35° NNE 15:35:57 10° E daylight
14 Apr - 17:17:10 10° WNW 17:23:52 65° SSW 17:31:02 10° SE daylight
14 Apr - 19:13:22 10° WSW 19:18:35 21° SSW 19:24:03 10° SSE daylight
15 Apr - 01:02:33 10° SSW 01:07:40 18° SSE 01:12:44 10° ESE visible
15 Apr - 02:55:16 10° SW 03:02:49 50° SSE 03:10:03 10° ENE night (unlit)
15 Apr - 04:49:48 10° WSW 04:57:12 52° NNW 05:04:12 10° NE night (unlit)
15 Apr - 06:47:51 10° WNW 06:51:44 15° NNW 06:55:30 10° N visible
15 Apr - 14:30:44 10° NNW 14:35:54 25° NNE 14:41:13 10° E daylight
15 Apr - 16:23:20 10° WNW 16:29:59 89° SSW 16:37:03 10° ESE daylight
15 Apr - 18:18:40 10° W 18:24:25 28° SSW 18:30:28 10° SSE daylight
15 Apr - 20:18:11 10° SSW 20:20:00 11° SSW 20:21:51 10° S daylight
16 Apr - 00:09:15 10° SSW 00:13:15 14° SSE 00:17:14 10° SE visible
16 Apr - 02:01:30 10° SW 02:08:40 38° SSE 02:15:39 10° E visible
16 Apr - 03:55:26 10° WSW 04:03:13 72° NNW 04:10:35 10° NE night (unlit)
16 Apr - 05:52:11 10° WNW 05:57:38 21° NNW 06:02:51 10° NNE night (unlit)
16 Apr - 13:37:53 10° NNW 13:41:58 17° NNE 13:46:06 10° ENE daylight
16 Apr - 15:29:41 10° NW 15:36:10 66° NNE 15:42:57 10° ESE daylight
16 Apr - 17:24:15 10° W 17:30:22 36° SSW 17:36:50 10° SE daylight
16 Apr - 19:22:21 10° SW 19:25:34 13° SSW 19:28:53 10° S daylight
16 Apr - 23:16:20 10° S 23:18:44 11° SSE 23:21:09 10° SSE visible
17 Apr - 01:07:51 10° SSW 01:14:28 29° SSE 01:21:00 10° E visible
17 Apr - 03:01:17 10° WSW 03:09:11 85° SSE 03:16:46 10° ENE night (unlit)
17 Apr - 04:57:04 10° W 05:03:34 30° NNW 05:09:48 10° NNE night (unlit)
17 Apr - 12:45:40 10° N 12:47:57 12° NNE 12:50:14 10° NE daylight
17 Apr - 14:36:12 10° NW 14:42:21 45° NNE 14:48:43 10° ESE daylight
17 Apr - 16:30:04 10° WNW 16:36:24 49° SSW 16:43:07 10° SE daylight
17 Apr - 18:27:04 10° WSW 18:31:16 17° SSW 18:35:36 10° SSE daylight
18 Apr - 00:14:21 10° SSW 00:20:11 22° SSE 00:26:01 10° ESE visible
18 Apr - 02:07:18 10° SW 02:15:07 64° SSE 02:22:43 10° ENE visible
18 Apr - 04:02:17 10° W 04:09:31 41° NNW 04:16:28 10° NE night (unlit)
18 Apr - 06:01:41 10° NW 06:04:20 12° NNW 06:06:56 10° N night (unlit)
18 Apr - 13:42:52 10° NNW 13:48:32 32° NNE 13:54:17 10° E daylight
18 Apr - 15:36:05 10° WNW 15:42:32 68° SSW 15:49:19 10° SE daylight
18 Apr - 17:32:08 10° WSW 17:37:04 21° SSW 17:42:13 10° SSE daylight
18 Apr - 23:21:01 10° SSW 23:25:50 17° SSE 23:30:41 10° ESE visible
19 Apr - 01:13:29 10° SW 01:20:59 47° SSE 01:28:26 10° E visible
19 Apr - 03:07:47 10° WSW 03:15:29 57° NNW 03:22:55 10° NE night (unlit)
19 Apr - 05:05:23 10° WNW 05:10:07 17° NNW 05:14:43 10° NNE night (unlit)
19 Apr - 12:49:44 10° NNW 12:54:40 23° NNE 12:59:35 10° ENE daylight
19 Apr - 14:42:15 10° WNW 14:48:44 86° NNE 14:55:26 10° ESE daylight
19 Apr - 16:37:30 10° W 16:43:00 28° SSW 16:48:44 10° SSE daylight
19 Apr - 18:37:28 10° SSW 18:38:23 10° SSW 18:39:17 10° S daylight
19 Apr - 22:27:58 10° S 22:31:25 13° SSE 22:34:55 10° SE daylight
20 Apr - 00:19:48 10° SW 00:26:49 36° SSE 00:33:53 10° E visible
20 Apr - 02:13:32 10° WSW 02:21:25 77° NNW 02:29:09 10° NE visible
20 Apr - 04:09:56 10° W 04:15:57 24° NNW 04:21:48 10° NNE night (unlit)
20 Apr - 11:56:52 10° N 12:00:42 16° NNE 12:04:30 10° ENE daylight
20 Apr - 13:48:36 10° NW 13:54:57 60° NNE 14:01:25 10° ESE daylight
20 Apr - 15:43:06 10° W 15:49:02 37° SSW 15:55:13 10° SE daylight
20 Apr - 17:41:12 10° SW 17:44:02 13° SSW 17:46:56 10° S daylight
20 Apr - 21:35:50 10° S 21:36:56 10° SSE 21:38:03 10° SSE daylight
20 Apr - 23:26:18 10° SSW 23:32:37 27° SSE 23:39:03 10° E visible
21 Apr - 01:19:28 10° WSW 01:27:21 80° SSE 01:35:10 10° ENE visible
21 Apr - 03:14:57 10° W 03:21:49 33° NNW 03:28:33 10° NNE night (unlit)
21 Apr - 11:04:41 10° N 11:06:38 11° NNE 11:08:33 10° NE daylight
21 Apr - 12:55:04 10° NW 13:01:10 42° NNE 13:07:14 10° E daylight
21 Apr - 14:48:55 10° WNW 14:55:10 51° SSW 15:01:35 10° SE daylight
21 Apr - 16:45:52 10° WSW 16:49:49 16° SSW 16:53:52 10° SSE daylight
21 Apr - 22:32:57 10° SSW 22:38:22 21° SSE 22:43:53 10° ESE visible
